カタログに戻る

STARLINK-35008

運用中通信VLEO
NORAD 65408·PAYLOAD·🇺🇸 United States

打ち上げ Aug 31, 2025 から Cape Canaveral Space Force Station

Loading…

次のパス (今後24時間)

TLE

最新Source: CelesTrak SupGP

元期: Sep 14, 2026, 22:30 UTC

1 65408C 25192E   26257.93798611  .00033838  00000+0  99996-3 0  2574
2 65408  53.1591  71.6904 0001181  79.0329 217.7791 15.34367006    17

AllMySatでSTARLINK-35008をリアルタイム追跡

Download on the App Store